[[{"header":{"parameterUnit":"m.s-1","parameterCategory":1,"la1":30.2991,"la2":30.254,"lo1":-89.0895,"lo2":-89.0444,"dy":0.0017,"dx":0.0017,"nx":28,"ny":28,"refTime":"2025-11-04T03:00:00:Z","depth":0,"parameterNumber":2,"parameterNumberName":"U-component_of_WINDS"},"data":[0,0,0,0,0,0,0,0,0,0,0,0,0,0,0,0,0,0,0,0,0,0,0,0,0,0,0,0,0,0,0,0,0,0,0,0,0,0,0,0,0,0,0,0,0,0,0,0,0,0,0,0,0,0,0,0,0,0,-2.767,-2.7669,0,-2.7624,-2.7623,-2.7623,-2.7502,-2.75,-2.7497,-2.7495,-2.7451,-2.7452,-2.7453,0,0,0,0,0,0,0,0,0,0,0,0,0,-2.7657,-2.7658,-2.767,-2.7669,-2.7668,-2.7624,-2.7623,-2.7623,-2.7503,-2.75,-2.7497,-2.7494,-2.7451,-2.7452,-2.7454,0,0,0,0,0,0,0,0,0,0,0,0,0,-2.7643,-2.7659,-2.767,-2.7603,-2.7597,-2.7624,-2.7623,-2.7622,-2.7504,-2.75,-2.7496,-2.7492,-2.745,-2.7452,-2.7454,-2.7543,0,0,-2.7459,-2.746,0,0,0,0,0,0,0,0,-2.7644,-2.7643,-2.7614,-2.7608,-2.7601,-2.7565,-2.7603,-2.7596,-2.7505,-2.7539,-2.7495,-2.749,-2.7492,-2.749,-2.749,-2.7541,-2.7539,-2.746,-2.7461,-2.7462,-2.7462,0,0,0,0,0,0,0,-2.7645,-2.7644,-2.7651,-2.7613,-2.7606,-2.7577,-2.7571,-2.7601,-2.7538,-2.7536,-2.7527,-2.7523,-2.7488,-2.7489,-2.7488,-2.7538,-2.746,-2.7461,-2.7462,-2.7463,-2.7661,-2.7665,0,0,0,0,0,0,-2.7655,-2.7646,-2.7653,-2.765,-2.7613,-2.7581,-2.7573,-2.758,-2.7537,-2.7527,-2.7526,-2.7518,-2.7488,-2.7486,-2.7486,-2.7589,-2.7461,-2.7463,-2.7464,-2.7657,-2.7662,-2.7667,0,0,0,0,0,0,-2.7655,-2.7657,-2.7655,-2.7646,-2.7643,-2.7585,-2.7594,-2.7581,-2.7582,-2.753,-2.7519,-2.7539,-2.7484,-2.7484,-2.753,-2.7586,-2.7464,-2.7466,-2.7652,-2.7659,-2.7664,-2.7794,0,0,0,0,0,0,-2.7655,-2.7657,-2.7689,-2.7647,-2.7644,-2.7698,-2.7597,-2.7583,-2.7585,-2.7573,-2.7539,-2.7529,-2.7481,-2.7528,-2.7532,-2.7586,-2.7467,-2.7647,-2.7655,-2.7662,-2.7785,-2.7804,-2.7821,0,0,0,0,0,-2.7655,-2.7728,-2.7692,-2.7693,-2.7683,-2.7701,-2.77,-2.7643,-2.759,-2.7623,-2.759,-2.753,-2.7579,-2.7533,-2.7537,-2.7593,-2.7643,-2.7653,-2.7662,-2.7776,-2.78,-2.782,0,0,0,0,0,0,-2.7778,-2.7721,-2.768,-2.7741,-2.7727,-2.7681,-2.772,-2.7669,-2.767,-2.7659,-2.7589,-2.7582,-2.7639,-2.762,-2.757,-2.7678,-2.7601,-2.7612,-2.7688,-2.771,-2.7727,-2.7731,-2.7469,0,0,0,0,0,-2.7813,-2.7831,-2.7781,-2.7839,-2.7834,-2.7779,-2.7785,-2.7742,-2.7725,-2.7719,-2.7689,-2.7676,-2.7688,-2.7698,-2.7706,-2.7781,-2.7773,-2.7822,-2.784,-2.7855,-2.7865,-2.7905,-2.7927,-2.7697,-2.7697,-2.7697,0,0,-2.7884,-2.7855,-2.7871,-2.7864,-2.7847,-2.787,-2.7775,-2.7802,-2.7819,-2.7723,-2.7765,-2.7743,-2.7724,-2.7785,-2.7811,-2.7772,-2.7927,-2.7867,-2.7879,-2.7881,-2.7917,-2.7939,-2.7958,-2.7704,-2.7702,-2.7701,0,0,-2.8025,-2.8004,-2.8051,-2.8038,-2.8015,-2.7978,-2.799,-2.7952,-2.7933,-2.7974,-2.7903,-2.7923,-2.7945,-2.7935,-2.7932,-2.8072,-2.8018,-2.8077,-2.8172,-2.8212,-2.823,-2.8246,-2.8297,-2.8316,-2.8087,-2.8088,-2.8088,0,-2.8116,-2.8146,-2.8082,-2.8115,-2.8115,-2.8029,-2.8078,-2.8068,-2.805,-2.8052,-2.8008,-2.8036,-2.8017,-2.8076,-2.811,-2.8111,-2.8123,-2.8081,-2.8232,-2.8247,-2.8261,-2.8309,-2.8329,-2.8095,-2.8094,-2.8093,-2.8093,0,-2.826,-2.8282,-2.8324,-2.8308,-2.8312,-2.8353,-2.8297,-2.831,-2.8268,-2.8236,-2.828,-2.8254,-2.8257,-2.8268,-2.8226,-2.8322,-2.8298,-2.8245,-2.8167,-2.8292,-2.8336,-2.8354,-2.8106,-2.8103,-2.8101,-2.8099,0,0,-2.8476,-2.8426,-2.8442,-2.8435,-2.8404,-2.8421,-2.8459,-2.8461,-2.8474,-2.8465,-2.8496,-2.8518,-2.8468,-2.8466,-2.8423,-2.8459,-2.8573,-2.84,-2.8399,-2.8435,-2.8679,-2.872,-2.8743,-2.8537,-2.8541,-2.8543,-2.8681,0,-2.861,-2.867,-2.8616,-2.8687,-2.8708,-2.8628,-2.8662,-2.8648,-2.862,-2.8635,-2.8604,-2.8621,-2.8554,-2.8552,-2.8584,-2.8553,-2.8622,-2.8542,-2.8567,-2.8569,-2.8575,-2.8765,-2.8808,-2.894,-2.8698,-2.8701,-2.8703,0,-2.8773,-2.8772,-2.8846,-2.8812,-2.8819,-2.885,-2.8848,-2.8863,-2.8846,-2.8824,-2.8823,-2.8771,-2.8807,-2.8731,-2.8782,-2.8729,-2.8736,-2.8723,-2.8727,-2.8728,-2.8644,-2.8772,-2.898,-2.9,-2.8729,-2.8727,-2.8725,0,-2.8925,-2.8942,-2.8988,-2.8984,-2.8946,-2.897,-2.8956,-2.8935,-2.8941,-2.894,-2.8943,-2.8947,-2.895,-2.8955,-2.8907,-2.8855,-2.8964,-2.8884,-2.8948,-2.895,-2.8974,-2.8974,-2.9187,-2.8978,-2.8978,-2.8978,-2.8977,0,-2.9081,-2.9129,-2.9056,-2.9085,-2.9138,-2.9076,-2.9131,-2.9108,-2.9091,-2.9115,-2.9047,-2.9072,-2.9005,-2.9024,-2.8986,-2.9035,-2.9036,-2.902,-2.901,-2.9027,-2.9029,-2.9031,-2.9021,-2.8983,-2.8982,-2.8981,-2.898,0,-2.9259,-2.9212,-2.9258,-2.9218,-2.921,-2.9251,-2.9218,-2.9244,-2.9212,-2.9244,-2.9248,-2.9199,-2.9217,-2.9169,-2.918,-2.9155,-2.9226,-2.92,-2.9231,-2.9224,-2.9291,-2.9286,-2.9514,-2.9541,-2.9315,-2.9317,-2.9319,0,-2.9361,-2.9397,-2.9362,-2.9373,-2.9362,-2.9381,-2.9386,-2.9328,-2.9336,-2.9321,-2.935,-2.9363,-2.9369,-2.9403,-2.9369,-2.9378,-2.9352,-2.9432,-2.9353,-2.937,-2.9355,-2.9354,-2.9358,-2.9448,-2.9451,-2.9453,-2.9455,0,-2.9549,-2.9524,-2.9534,-2.9537,-2.9545,-2.9545,-2.954,-2.9553,-2.949,-2.9504,-2.9522,-2.9527,-2.9539,-2.9553,-2.9555,-2.9541,-2.9489,-2.948,-2.9496,-2.9514,-2.9531,-2.9524,-2.9276,-2.9475,-2.9473,-2.9472,-2.9471,-2.947,-2.9693,-2.9722,-2.9702,-2.9716,-2.9706,-2.9703,-2.9726,-2.9698,-2.9711,-2.9716,-2.9681,-2.9707,-2.9691,-2.9688,-2.968,-2.9701,-2.9665,-2.9687,-2.9693,-2.9699,-2.9711,-2.9527,-2.9701,-2.97,-2.9699,-2.9699,-2.9698,0,-2.9878,-2.9861,-2.9875,-2.987,-2.9882,-2.9831,-2.9823,-2.9837,-2.986,-2.985,-2.9859,-2.9881,-2.9894,-2.9862,-2.9872,-2.9895,-2.9871,-2.9899,-2.9897,-2.9895,-2.9742,-2.9728,-2.9918,-2.9918,-2.9918,-2.9918,-2.9918,-2.9918,-2.9975,-3.0022,-2.9995,-3.0037,-3.0021,-3.0045,-3.0045,-3.0043,-3.0035,-3.0062,-3.0073,-3.0052,-3.0034,-3.0042,-3.0053,-3.0043,-3.0051,-3.0088,-3.007,-2.9927,-2.9906,-2.9885,-2.9872,-3.0089,-3.009,-3.0221,-3.0223,-3.0224]},{"header":{"parameterUnit":"m.s-1","parameterCategory":1,"la1":30.2991,"la2":30.254,"lo1":-89.0895,"lo2":-89.0444,"dy":0.0017,"dx":0.0017,"nx":28,"ny":28,"refTime":"2025-11-04T03:00:00:Z","depth":0,"parameterNumber":3,"parameterNumberName":"V-component_of_WINDS"},"data":[0,0,0,0,0,0,0,0,0,0,0,0,0,0,0,0,0,0,0,0,0,0,0,0,0,0,0,0,0,0,0,0,0,0,0,0,0,0,0,0,0,0,0,0,0,0,0,0,0,0,0,0,0,0,0,0,0,0,0.9885,0.9884,0,0.9856,0.9855,0.9855,0.9883,0.9884,0.9885,0.9887,0.9852,0.985,0.9848,0,0,0,0,0,0,0,0,0,0,0,0,0,0.9961,0.996,0.9885,0.9884,0.9884,0.9856,0.9855,0.9855,0.9883,0.9884,0.9886,0.9887,0.9853,0.985,0.9848,0,0,0,0,0,0,0,0,0,0,0,0,0,0.9929,0.9959,0.9885,0.9895,0.9895,0.9856,0.9855,0.9855,0.9883,0.9884,0.9886,0.9888,0.9853,0.9851,0.9848,0.9795,0,0,0.9839,0.9837,0,0,0,0,0,0,0,0,0.9931,0.9927,0.9894,0.9894,0.9895,0.9875,0.987,0.9835,0.9882,0.9887,0.9887,0.9889,0.9858,0.9855,0.9845,0.9794,0.9792,0.9838,0.9836,0.9835,0.9834,0,0,0,0,0,0,0,0.9933,0.9928,0.9873,0.9893,0.9894,0.99,0.9897,0.9863,0.9863,0.9887,0.9889,0.9885,0.9858,0.9848,0.9845,0.9792,0.9838,0.9836,0.9834,0.9833,0.9696,0.9694,0,0,0,0,0,0,0.9935,0.993,0.9874,0.9872,0.9918,0.9897,0.9894,0.9879,0.9864,0.9863,0.9884,0.9887,0.9852,0.9848,0.9844,0.9781,0.9835,0.9832,0.9831,0.9697,0.9695,0.9693,0,0,0,0,0,0,0.9937,0.993,0.9875,0.9902,0.9895,0.9894,0.9877,0.9878,0.9868,0.9862,0.9861,0.9874,0.9854,0.9848,0.9807,0.978,0.9831,0.9828,0.97,0.9697,0.9694,0.9655,0,0,0,0,0,0,0.9939,0.993,0.9911,0.9901,0.9894,0.984,0.9876,0.9876,0.9863,0.9866,0.9852,0.9851,0.9854,0.9812,0.9804,0.9777,0.9826,0.9702,0.9698,0.9695,0.9659,0.9651,0.9645,0,0,0,0,0,0.9941,0.99,0.991,0.9903,0.987,0.9839,0.9834,0.9841,0.9861,0.9841,0.9837,0.9851,0.9785,0.9807,0.9799,0.9771,0.9704,0.9699,0.9695,0.9662,0.9653,0.9645,0,0,0,0,0,0,0.9905,0.9899,0.991,0.9864,0.9852,0.9844,0.9818,0.9831,0.9811,0.9815,0.9822,0.9819,0.9776,0.977,0.9795,0.9719,0.9747,0.9741,0.9725,0.9716,0.9709,0.9711,0.9824,0,0,0,0,0,0.9892,0.9869,0.9864,0.9825,0.9818,0.9819,0.9806,0.9812,0.9799,0.9794,0.9787,0.9773,0.9749,0.9732,0.971,0.9659,0.9655,0.9635,0.9628,0.9623,0.9617,0.9589,0.9579,0.9679,0.9679,0.968,0,0,0.9864,0.9858,0.9842,0.9817,0.9808,0.9783,0.9815,0.9786,0.9767,0.9789,0.975,0.9745,0.973,0.9684,0.9663,0.9677,0.9589,0.9617,0.9613,0.961,0.9584,0.9574,0.9566,0.9677,0.9677,0.9678,0,0,0.98,0.9794,0.976,0.9751,0.9738,0.974,0.9732,0.9722,0.972,0.9682,0.9698,0.9675,0.9633,0.9622,0.961,0.9544,0.9556,0.9536,0.9499,0.9472,0.9464,0.9457,0.9432,0.9423,0.9531,0.9531,0.9531,0,0.9766,0.973,0.9741,0.9711,0.9699,0.9721,0.9686,0.9676,0.9656,0.9646,0.9663,0.9612,0.9603,0.9554,0.9538,0.9529,0.9519,0.9537,0.9465,0.9458,0.9451,0.9428,0.9418,0.9528,0.9529,0.9529,0.9529,0,0.9689,0.9663,0.9637,0.9619,0.9605,0.9572,0.9577,0.9561,0.9569,0.9569,0.953,0.952,0.9496,0.9486,0.9492,0.9438,0.9447,0.9464,0.9492,0.9439,0.9417,0.9408,0.9525,0.9526,0.9527,0.9527,0,0,0.9598,0.9589,0.9578,0.9571,0.9559,0.9539,0.9508,0.9486,0.9471,0.9457,0.943,0.9396,0.9412,0.9399,0.9405,0.9382,0.9328,0.9401,0.9401,0.9387,0.9267,0.9253,0.9242,0.9338,0.9336,0.9335,0.9268,0,0.9533,0.9481,0.949,0.9438,0.9414,0.9435,0.9408,0.9398,0.9397,0.9375,0.9374,0.9349,0.9373,0.9365,0.9343,0.934,0.9304,0.9345,0.9311,0.9309,0.9312,0.9231,0.9215,0.9153,0.9259,0.9258,0.9257,0,0.9449,0.9434,0.938,0.9373,0.9363,0.9339,0.932,0.93,0.9288,0.929,0.9276,0.9287,0.9255,0.9285,0.9241,0.9268,0.9255,0.9252,0.9249,0.9245,0.9278,0.9222,0.9133,0.9123,0.9243,0.9244,0.9245,0,0.9387,0.9353,0.9317,0.931,0.9301,0.9283,0.9278,0.9268,0.9255,0.9238,0.9229,0.9209,0.9197,0.918,0.9184,0.9207,0.9138,0.9169,0.9137,0.9136,0.9119,0.912,0.9025,0.9114,0.9114,0.9115,0.9115,0,0.9312,0.9278,0.9289,0.9266,0.9228,0.924,0.9202,0.9199,0.9191,0.9167,0.9184,0.9161,0.917,0.9147,0.9151,0.9113,0.9107,0.9106,0.9107,0.9103,0.9103,0.9093,0.9097,0.9112,0.9113,0.9113,0.9114,0,0.9235,0.9241,0.9203,0.9198,0.9196,0.9169,0.9164,0.9142,0.9144,0.9114,0.9108,0.9109,0.9084,0.9088,0.9058,0.9061,0.9013,0.902,0.9017,0.9018,0.8985,0.8987,0.8878,0.8864,0.8964,0.8963,0.8962,0,0.9186,0.916,0.9154,0.914,0.9135,0.9112,0.9099,0.911,0.9095,0.9081,0.906,0.9037,0.9018,0.8976,0.8974,0.8952,0.8958,0.8921,0.8954,0.8951,0.8955,0.8956,0.8953,0.8914,0.8913,0.8912,0.8911,0,0.9097,0.9102,0.9083,0.9066,0.905,0.9037,0.9024,0.9012,0.9021,0.9004,0.8979,0.8965,0.8937,0.8913,0.8892,0.8886,0.8899,0.8901,0.8892,0.8887,0.8886,0.8885,0.8997,0.8903,0.8904,0.8904,0.8905,0.8905,0.9031,0.901,0.9002,0.8981,0.8974,0.8962,0.8942,0.8942,0.8922,0.89,0.8908,0.8879,0.8868,0.8843,0.8835,0.8812,0.8825,0.8812,0.8808,0.8805,0.88,0.8892,0.8808,0.8808,0.8809,0.8809,0.8809,0,0.8942,0.8939,0.892,0.8903,0.8886,0.8903,0.8891,0.8875,0.885,0.884,0.8822,0.8794,0.8771,0.8768,0.8746,0.8728,0.8733,0.8722,0.8722,0.872,0.879,0.8799,0.8718,0.8718,0.8718,0.8718,0.8718,0.8718,0.8894,0.8858,0.8862,0.8823,0.882,0.8793,0.8784,0.8774,0.8766,0.8734,0.8715,0.8714,0.8707,0.8685,0.8664,0.8664,0.8654,0.864,0.8641,0.8706,0.8715,0.8724,0.8732,0.8638,0.8638,0.8573,0.8572,0.8572]}]]